When you browse on this site, cookies collect data to enhance your experience and personalize the content and advertising you see.
Visit our Privacy Policy to learn more. By continuing to use the site, you agree to this use of cookies and data.
  • In Schweiz
  • Länderverzeichnis
  • Für 7 Tage
  • Wassertemperatur
  • Satellitenkarten
  • Wetterkarte
  • Widgets
  • user-avatar
    Anmelden

    Stündliche Wetter Brisbane

    Heute, 22 März, Freitag

    Zeit Temperatur Niederschläge Wind Luftdruck Luftfeuchtigkeit
    00:00 +25°C° 1.1 mm 2 m/S 760 mmHg 89%
    01:00 +25°C° 1.1 mm 2 m/S 760 mmHg 89%
    02:00 +24°C° 0.8 mm 1 m/S 760 mmHg 90%
    03:00 +24°C° 0.8 mm 1 m/S 760 mmHg 91%
    04:00 +24°C° 0.8 mm 1 m/S 759 mmHg 92%
    05:00 +24°C° 0.1 mm 1 m/S 760 mmHg 91%
    06:00 +24°C° 0.1 mm 1 m/S 760 mmHg 91%
    07:00 +24°C° 0.1 mm 1 m/S 761 mmHg 90%
    08:00 +26°C° 0 mm 1 m/S 761 mmHg 82%
    09:00 +28°C° 0 mm 1 m/S 761 mmHg 73%
    10:00 +30°C° 0 mm 1 m/S 761 mmHg 64%
    11:00 +30°C° 0.3 mm 2 m/S 760 mmHg 64%
    12:00 +31°C° 0.3 mm 2 m/S 760 mmHg 64%
    13:00 +31°C° 0.3 mm 3 m/S 759 mmHg 64%
    14:00 +31°C° 0.1 mm 3 m/S 759 mmHg 63%
    15:00 +31°C° 0.1 mm 3 m/S 759 mmHg 63%
    16:00 +30°C° 0.1 mm 3 m/S 759 mmHg 63%
    17:00 +29°C° 0 mm 3 m/S 759 mmHg 69%
    18:00 +28°C° 0 mm 3 m/S 759 mmHg 75%
    19:00 +26°C° 0 mm 2 m/S 759 mmHg 81%
    20:00 +26°C° 0 mm 2 m/S 760 mmHg 82%
    21:00 +26°C° 0 mm 2 m/S 760 mmHg 84%
    22:00 +25°C° 0 mm 2 m/S 760 mmHg 85%
    23:00 +25°C° 0.2 mm 2 m/S 760 mmHg 87%

    Morgen, 23 März, Samstag

    Zeit Temperatur Niederschläge Wind Luftdruck Luftfeuchtigkeit
    00:00 +25°C° 0.2 mm 1 m/S 760 mmHg 88%
    01:00 +24°C° 0.2 mm 1 m/S 760 mmHg 89%
    02:00 +24°C° 0 mm 1 m/S 760 mmHg 90%
    03:00 +24°C° 0 mm 1 m/S 759 mmHg 91%
    04:00 +24°C° 0 mm 1 m/S 759 mmHg 91%
    05:00 +24°C° 0.1 mm 1 m/S 760 mmHg 90%
    06:00 +25°C° 0.1 mm 1 m/S 760 mmHg 89%
    07:00 +25°C° 0.1 mm 1 m/S 760 mmHg 88%
    08:00 +27°C° 0 mm 1 m/S 760 mmHg 78%
    09:00 +29°C° 0 mm 1 m/S 760 mmHg 69%
    10:00 +30°C° 0 mm 2 m/S 760 mmHg 60%
    11:00 +32°C° 0 mm 2 m/S 760 mmHg 54%
    12:00 +35°C° 0 mm 2 m/S 759 mmHg 48%
    13:00 +36°C° 0 mm 2 m/S 759 mmHg 43%
    14:00 +35°C° 0 mm 3 m/S 758 mmHg 47%
    15:00 +34°C° 0 mm 3 m/S 758 mmHg 51%
    16:00 +33°C° 0 mm 4 m/S 757 mmHg 55%
    17:00 +30°C° 0 mm 4 m/S 758 mmHg 62%
    18:00 +29°C° 0 mm 4 m/S 758 mmHg 70%
    19:00 +27°C° 0 mm 4 m/S 758 mmHg 77%
    20:00 +27°C° 0 mm 3 m/S 759 mmHg 79%
    21:00 +26°C° 0 mm 3 m/S 759 mmHg 82%
    22:00 +25°C° 0 mm 2 m/S 760 mmHg 84%
    23:00 +25°C° 0 mm 2 m/S 760 mmHg 85%

    übermorgen, 24 März, Sonntag

    Zeit Temperatur Niederschläge Wind Luftdruck Luftfeuchtigkeit
    00:00 +25°C° 0 mm 2 m/S 760 mmHg 86%
    01:00 +24°C° 0 mm 1 m/S 760 mmHg 88%
    02:00 +24°C° 0 mm 1 m/S 759 mmHg 88%
    03:00 +24°C° 0 mm 1 m/S 759 mmHg 89%
    04:00 +24°C° 0 mm 1 m/S 759 mmHg 89%
    05:00 +24°C° 0 mm 1 m/S 760 mmHg 88%
    06:00 +24°C° 0 mm 1 m/S 760 mmHg 86%
    07:00 +25°C° 0 mm 1 m/S 760 mmHg 84%
    08:00 +27°C° 0 mm 1 m/S 760 mmHg 73%
    09:00 +30°C° 0 mm 1 m/S 760 mmHg 62%
    10:00 +32°C° 0 mm 1 m/S 760 mmHg 51%
    11:00 +34°C° 0 mm 2 m/S 760 mmHg 48%
    12:00 +35°C° 0 mm 2 m/S 759 mmHg 44%
    13:00 +37°C° 0 mm 3 m/S 759 mmHg 40%
    14:00 +36°C° 0 mm 3 m/S 758 mmHg 44%
    15:00 +35°C° 0 mm 4 m/S 758 mmHg 47%
    16:00 +34°C° 0 mm 4 m/S 758 mmHg 51%
    17:00 +32°C° 0 mm 4 m/S 758 mmHg 59%
    18:00 +29°C° 0 mm 4 m/S 758 mmHg 67%
    19:00 +27°C° 0 mm 3 m/S 759 mmHg 75%
    20:00 +27°C° 0 mm 3 m/S 759 mmHg 77%
    21:00 +26°C° 0 mm 3 m/S 760 mmHg 79%
    22:00 +26°C° 0 mm 3 m/S 760 mmHg 81%
    23:00 +26°C° 0 mm 3 m/S 760 mmHg 83%

    25 März, Montag

    Zeit Temperatur Niederschläge Wind Luftdruck Luftfeuchtigkeit
    00:00 +25°C° 0 mm 2 m/S 760 mmHg 85%
    01:00 +25°C° 0 mm 2 m/S 760 mmHg 87%
    02:00 +24°C° 0 mm 2 m/S 760 mmHg 88%
    03:00 +24°C° 0 mm 1 m/S 760 mmHg 88%
    04:00 +24°C° 0 mm 1 m/S 760 mmHg 89%
    05:00 +24°C° 0 mm 1 m/S 760 mmHg 88%
    06:00 +24°C° 0 mm 1 m/S 760 mmHg 86%
    07:00 +25°C° 0 mm 1 m/S 761 mmHg 85%
    08:00 +27°C° 0 mm 2 m/S 761 mmHg 75%
    09:00 +29°C° 0 mm 2 m/S 761 mmHg 66%
    10:00 +31°C° 0 mm 2 m/S 761 mmHg 56%
    11:00 +33°C° 0 mm 3 m/S 760 mmHg 53%
    12:00 +34°C° 0 mm 3 m/S 760 mmHg 49%
    13:00 +35°C° 0 mm 3 m/S 759 mmHg 46%
    14:00 +34°C° 0 mm 4 m/S 758 mmHg 51%
    15:00 +33°C° 0 mm 4 m/S 758 mmHg 56%
    16:00 +32°C° 0 mm 5 m/S 758 mmHg 60%
    17:00 +30°C° 0 mm 4 m/S 758 mmHg 67%
    18:00 +28°C° 0 mm 4 m/S 758 mmHg 73%
    19:00 +27°C° 0 mm 3 m/S 759 mmHg 80%
    20:00 +26°C° 0 mm 3 m/S 759 mmHg 82%
    21:00 +26°C° 0 mm 3 m/S 759 mmHg 84%
    22:00 +26°C° 0 mm 3 m/S 760 mmHg 85%
    23:00 +26°C° 0 mm 3 m/S 759 mmHg 86%

    26 März, Dienstag

    Zeit Temperatur Niederschläge Wind Luftdruck Luftfeuchtigkeit
    00:00 +25°C° 0 mm 2 m/S 759 mmHg 87%
    01:00 +25°C° 0 mm 2 m/S 759 mmHg 88%
    02:00 +25°C° 0 mm 2 m/S 759 mmHg 89%
    03:00 +25°C° 0 mm 2 m/S 758 mmHg 90%
    04:00 +24°C° 0 mm 2 m/S 758 mmHg 91%
    05:00 +25°C° 0 mm 2 m/S 759 mmHg 90%
    06:00 +25°C° 0 mm 2 m/S 759 mmHg 88%
    07:00 +25°C° 0 mm 2 m/S 759 mmHg 87%
    08:00 +27°C° 0 mm 2 m/S 759 mmHg 77%
    09:00 +29°C° 0 mm 2 m/S 759 mmHg 67%
    10:00 +31°C° 0 mm 2 m/S 759 mmHg 56%
    11:00 +33°C° 0 mm 3 m/S 758 mmHg 53%
    12:00 +34°C° 0 mm 3 m/S 758 mmHg 50%
    13:00 +35°C° 0 mm 4 m/S 757 mmHg 47%
    14:00 +34°C° 0 mm 4 m/S 756 mmHg 51%
    15:00 +33°C° 0 mm 4 m/S 756 mmHg 55%
    16:00 +33°C° 0 mm 5 m/S 755 mmHg 59%
    17:00 +30°C° 0 mm 5 m/S 756 mmHg 66%
    18:00 +29°C° 0 mm 5 m/S 756 mmHg 72%
    19:00 +28°C° 0 mm 5 m/S 756 mmHg 78%
    20:00 +27°C° 0 mm 4 m/S 757 mmHg 81%
    21:00 +27°C° 0 mm 4 m/S 757 mmHg 84%
    22:00 +27°C° 0 mm 3 m/S 758 mmHg 86%
    23:00 +27°C° 0 mm 3 m/S 758 mmHg 87%

    27 März, Mittwoch

    Zeit Temperatur Niederschläge Wind Luftdruck Luftfeuchtigkeit
    00:00 +26°C° 0 mm 3 m/S 757 mmHg 88%
    01:00 +26°C° 0 mm 3 m/S 757 mmHg 89%
    02:00 +26°C° 0.2 mm 2 m/S 757 mmHg 90%
    03:00 +26°C° 0.2 mm 2 m/S 757 mmHg 90%
    04:00 +25°C° 0.2 mm 2 m/S 757 mmHg 91%
    05:00 +25°C° 0.3 mm 1 m/S 758 mmHg 90%
    06:00 +26°C° 0.3 mm 1 m/S 758 mmHg 89%
    07:00 +26°C° 0.3 mm 1 m/S 759 mmHg 88%
    08:00 +27°C° 0.4 mm 1 m/S 759 mmHg 85%
    09:00 +27°C° 0.4 mm 2 m/S 759 mmHg 82%
    10:00 +28°C° 0.4 mm 2 m/S 759 mmHg 79%
    11:00 +28°C° 0.5 mm 2 m/S 759 mmHg 77%
    12:00 +29°C° 0.5 mm 2 m/S 758 mmHg 76%
    13:00 +29°C° 0.5 mm 3 m/S 758 mmHg 74%
    14:00 +28°C° 0.9 mm 3 m/S 758 mmHg 77%
    15:00 +27°C° 0.9 mm 3 m/S 758 mmHg 81%
    16:00 +26°C° 0.9 mm 4 m/S 758 mmHg 84%
    17:00 +26°C° 0.4 mm 4 m/S 759 mmHg 85%
    18:00 +25°C° 0.4 mm 5 m/S 759 mmHg 86%
    19:00 +25°C° 0.4 mm 5 m/S 760 mmHg 87%
    20:00 +25°C° 0.2 mm 5 m/S 760 mmHg 87%
    21:00 +25°C° 0.2 mm 5 m/S 760 mmHg 88%
    22:00 +23°C° 0.2 mm 4 m/S 760 mmHg 88%
    23:00 +23°C° 0.7 mm 4 m/S 760 mmHg 89%
    Mehr zeigen